| time (UTC) | temp F | wind direction | speed MPH | gust MPH | rain 1hr in | rain 24hr in | rain mn in | humidity % | barometer mb |
| 20260831134612 | 47 | 211 | 0.0 | 0.0 | 0.00 | 0.00 | 0.00 | 90 | 1021.1 |
| 20260831133623 | 47 | 211 | 0.0 | 2.0 | 0.00 | 0.00 | 0.00 | 90 | 1021.0 |
| 20260831132614 | 47 | 211 | 0.0 | 2.0 | 0.00 | 0.00 | 0.00 | 90 | 1020.9 |
| 20260831131625 | 47 | 211 | 0.0 | 2.0 | 0.00 | 0.00 | 0.00 | 90 | 1020.9 |
| 20260831130620 | 47 | 211 | 0.0 | 2.0 | 0.00 | 0.00 | 0.00 | 90 | 1020.8 |
| 20260831125623 | 47 | 211 | 1.0 | 3.0 | 0.00 | 0.01 | 0.00 | 90 | 1020.7 |
| 20260831124614 | 48 | 211 | 1.0 | 2.0 | 0.00 | 0.01 | 0.00 | 89 | 1020.7 |
| 20260831123625 | 48 | 211 | 1.0 | 2.0 | 0.00 | 0.01 | 0.00 | 89 | 1020.6 |
| 20260831122621 | 48 | 211 | 1.0 | 1.0 | 0.00 | 0.01 | 0.00 | 89 | 1020.6 |
| 20260831121631 | 48 | 211 | 2.0 | 3.0 | 0.00 | 0.01 | 0.00 | 89 | 1020.6 |
| 20260831120623 | 48 | 211 | 1.0 | 2.0 | 0.00 | 0.01 | 0.00 | 89 | 1020.6 |
| 20260831115626 | 49 | 210 | 3.0 | 4.0 | 0.00 | 0.01 | 0.00 | 88 | 1020.6 |
| 20260831114637 | 49 | 210 | 1.0 | 2.0 | 0.00 | 0.01 | 0.00 | 88 | 1020.5 |
| 20260831113631 | 49 | 210 | 0.0 | 1.0 | 0.00 | 0.01 | 0.00 | 88 | 1020.7 |
| 20260831112622 | 49 | 210 | 0.0 | 1.0 | 0.00 | 0.01 | 0.00 | 88 | 1020.6 |
| 20260831111613 | 49 | 210 | 1.0 | 2.0 | 0.00 | 0.01 | 0.00 | 88 | 1020.5 |
| 20260831110624 | 49 | 210 | 0.0 | 2.0 | 0.00 | 0.01 | 0.00 | 87 | 1020.4 |
| 20260831105631 | 50 | 210 | 0.0 | 1.0 | 0.00 | 0.01 | 0.00 | 87 | 1020.4 |
| 20260831104622 | 50 | 210 | 1.0 | 3.0 | 0.00 | 0.01 | 0.00 | 87 | 1020.4 |
| 20260831103634 | 51 | 210 | 0.0 | 2.0 | 0.00 | 0.01 | 0.00 | 87 | 1020.4 |
| 20260831102644 | 51 | 210 | 0.0 | 0.0 | 0.00 | 0.01 | 0.00 | 86 | 1020.4 |
| 20260831101617 | 51 | 210 | 0.0 | 0.0 | 0.00 | 0.01 | 0.00 | 86 | 1020.4 |
| 20260831100625 | 50 | 210 | 1.0 | 2.0 | 0.00 | 0.01 | 0.00 | 87 | 1020.2 |
| 20260831095648 | 50 | 209 | 0.0 | 0.0 | 0.00 | 0.08 | 0.00 | 86 | 1020.2 |
| 20260831094616 | 50 | 209 | 0.0 | 0.0 | 0.00 | 0.08 | 0.00 | 86 | 1020.2 |
| 20260831093626 | 50 | 209 | 0.0 | 1.0 | 0.00 | 0.08 | 0.00 | 86 | 1020.2 |
| 20260831092620 | 50 | 209 | 0.0 | 2.0 | 0.00 | 0.08 | 0.00 | 85 | 1020.2 |
| 20260831091629 | 50 | 209 | 0.0 | 0.0 | 0.00 | 0.08 | 0.00 | 85 | 1020.1 |
| 20260831090619 | 50 | 209 | 0.0 | 2.0 | 0.00 | 0.08 | 0.00 | 85 | 1020.0 |
| 20260831085620 | 50 | 209 | 0.0 | 3.0 | 0.00 | 0.08 | 0.00 | 83 | 1020.0 |
| 20260831084614 | 51 | 208 | 2.0 | 4.0 | 0.00 | 0.08 | 0.00 | 82 | 1020.0 |
| 20260831083644 | 52 | 206 | 1.0 | 3.0 | 0.00 | 0.08 | 0.00 | 82 | 1020.1 |
| 20260831082614 | 52 | 206 | 2.0 | 3.0 | 0.00 | 0.08 | 0.00 | 82 | 1019.9 |
| 20260831081624 | 53 | 206 | 0.0 | 2.0 | 0.00 | 0.08 | 0.00 | 81 | 1019.8 |
| 20260831080647 | 53 | 206 | 1.0 | 2.0 | 0.00 | 0.08 | 0.00 | 80 | 1019.8 |
| 20260831075629 | 53 | 206 | 0.0 | 2.0 | 0.00 | 0.08 | 0.00 | 80 | 1019.9 |
| 20260831074618 | 53 | 205 | 0.0 | 1.0 | 0.00 | 0.08 | 0.00 | 80 | 1019.9 |
| 20260831073628 | 53 | 205 | 2.0 | 3.0 | 0.00 | 0.08 | 0.00 | 80 | 1019.9 |
| 20260831072621 | 53 | 206 | 0.0 | 2.0 | 0.00 | 0.08 | 0.00 | 78 | 1019.9 |
| 20260831071631 | 54 | 206 | 1.0 | 2.0 | 0.00 | 0.08 | 0.00 | 78 | 1020.0 |
| 20260831070621 | 54 | 205 | 0.0 | 1.0 | 0.00 | 0.08 | 0.00 | 79 | 1019.9 |
| 20260831065643 | 54 | 205 | 1.0 | 2.0 | 0.00 | 0.08 | 0.00 | 78 | 1019.8 |
| 20260831064616 | 54 | 205 | 1.0 | 2.0 | 0.00 | 0.08 | 0.00 | 78 | 1019.7 |
| 20260831063627 | 54 | 205 | 2.0 | 2.0 | 0.00 | 0.08 | 0.00 | 78 | 1019.7 |
| 20260831062637 | 54 | 205 | 1.0 | 3.0 | 0.00 | 0.08 | 0.00 | 78 | 1019.7 |
| 20260831061626 | 55 | 205 | 0.0 | 3.0 | 0.00 | 0.08 | 0.00 | 77 | 1019.6 |
| 20260831060622 | 56 | 205 | 2.0 | 4.0 | 0.00 | 0.08 | 0.00 | 77 | 1019.6 |
| 20260831055629 | 56 | 202 | 2.0 | 3.0 | 0.00 | 0.08 | 0.08 | 78 | 1019.6 |
| 20260831054619 | 56 | 201 | 0.0 | 2.0 | 0.00 | 0.08 | 0.08 | 76 | 1019.5 |
| 20260831053630 | 57 | 201 | 0.0 | 3.0 | 0.00 | 0.08 | 0.08 | 76 | 1019.5 |
| 20260831052620 | 57 | 201 | 1.0 | 3.0 | 0.00 | 0.08 | 0.08 | 74 | 1019.5 |
| 20260831051615 | 58 | 186 | 0.0 | 3.0 | 0.00 | 0.08 | 0.08 | 72 | 1019.4 |
| 20260831050626 | 59 | 186 | 0.0 | 1.0 | 0.00 | 0.08 | 0.08 | 70 | 1019.3 |
| 20260831045628 | 60 | 186 | 1.0 | 3.0 | 0.00 | 0.08 | 0.08 | 68 | 1019.1 |
| 20260831044618 | 60 | 186 | 1.0 | 2.0 | 0.00 | 0.08 | 0.08 | 66 | 1019.1 |
| 20260831043612 | 60 | 186 | 2.0 | 3.0 | 0.00 | 0.08 | 0.08 | 66 | 1019.1 |
| 20260831042622 | 61 | 186 | 1.0 | 3.0 | 0.00 | 0.08 | 0.08 | 66 | 1019.1 |
| 20260831041631 | 61 | 186 | 1.0 | 4.0 | 0.00 | 0.08 | 0.08 | 66 | 1019.1 |
| 20260831040627 | 61 | 252 | 1.0 | 4.0 | 0.00 | 0.08 | 0.08 | 66 | 1019.1 |
| 20260831035612 | 61 | 254 | 1.0 | 3.0 | 0.00 | 0.08 | 0.08 | 67 | 1018.9 |
| 20260831034622 | 62 | 254 | 0.0 | 2.0 | 0.00 | 0.08 | 0.08 | 66 | 1018.9 |
| 20260831033612 | 62 | 254 | 0.0 | 2.0 | 0.00 | 0.08 | 0.08 | 64 | 1018.7 |
| 20260831032626 | 63 | 254 | 0.0 | 2.0 | 0.00 | 0.08 | 0.08 | 64 | 1018.6 |
| 20260831031615 | 63 | 254 | 0.0 | 1.0 | 0.00 | 0.08 | 0.08 | 61 | 1018.5 |
| 20260831030647 | 64 | 254 | 1.0 | 2.0 | 0.00 | 0.08 | 0.08 | 59 | 1018.3 |
| 20260831025651 | 64 | 254 | 0.0 | 5.0 | 0.00 | 0.08 | 0.08 | 57 | 1018.1 |
| 20260831024622 | 65 | 293 | 1.0 | 2.0 | 0.00 | 0.08 | 0.08 | 56 | 1017.9 |
| 20260831023638 | 65 | 293 | 2.0 | 5.0 | 0.00 | 0.08 | 0.08 | 56 | 1017.7 |
| 20260831022628 | 66 | 242 | 3.0 | 4.0 | 0.00 | 0.08 | 0.08 | 55 | 1017.6 |
| 20260831021618 | 68 | 240 | 2.0 | 4.0 | 0.00 | 0.08 | 0.08 | 50 | 1017.5 |
| 20260831020629 | 70 | 235 | 2.0 | 4.0 | 0.00 | 0.08 | 0.08 | 50 | 1017.4 |
| 20260831015617 | 71 | 234 | 2.0 | 5.0 | 0.00 | 0.08 | 0.08 | 44 | 1017.2 |
| 20260831014629 | 72 | 307 | 3.0 | 4.0 | 0.00 | 0.08 | 0.08 | 42 | 1017.2 |
| 20260831013620 | 75 | 307 | 3.0 | 8.0 | 0.00 | 0.08 | 0.08 | 35 | 1017.2 |
| 20260831012650 | 75 | 300 | 5.0 | 9.0 | 0.00 | 0.08 | 0.08 | 35 | 1017.2 |
| 20260831011625 | 74 | 296 | 6.0 | 8.0 | 0.00 | 0.08 | 0.08 | 37 | 1017.3 |
| 20260831010615 | 76 | 260 | 4.0 | 9.0 | 0.00 | 0.08 | 0.08 | 38 | 1017.4 |
| 20260831005619 | 76 | 292 | 6.0 | 9.0 | 0.00 | 0.08 | 0.08 | 33 | 1017.2 |
| 20260831004613 | 76 | 296 | 4.0 | 11.0 | 0.00 | 0.08 | 0.08 | 36 | 1017.1 |
| 20260831003626 | 76 | 279 | 5.0 | 11.0 | 0.00 | 0.08 | 0.08 | 36 | 1017.1 |
| 20260831002617 | 77 | 297 | 4.0 | 9.0 | 0.00 | 0.08 | 0.08 | 33 | 1017.2 |
| 20260831001628 | 77 | 302 | 8.0 | 11.0 | 0.00 | 0.08 | 0.08 | 32 | 1017.3 |
| 20260831000613 | 77 | 269 | 7.0 | 10.0 | 0.00 | 0.08 | 0.08 | 33 | 1017.4 |
| 20260830235636 | 77 | 268 | 7.0 | 13.0 | 0.00 | 0.08 | 0.08 | 35 | 1017.3 |
| 20260830234626 | 78 | 279 | 8.0 | 12.0 | 0.00 | 0.08 | 0.08 | 34 | 1017.4 |
| 20260830233615 | 78 | 271 | 4.0 | 15.0 | 0.00 | 0.08 | 0.08 | 31 | 1017.3 |
| 20260830232626 | 78 | 260 | 8.0 | 11.0 | 0.00 | 0.08 | 0.08 | 36 | 1017.3 |
| 20260830231620 | 78 | 355 | 3.0 | 11.0 | 0.00 | 0.08 | 0.08 | 32 | 1017.3 |
| 20260830230627 | 78 | 302 | 7.0 | 13.0 | 0.00 | 0.08 | 0.08 | 35 | 1017.2 |
| 20260830225630 | 78 | 276 | 11.0 | 13.0 | 0.00 | 0.08 | 0.08 | 36 | 1017.2 |
| 20260830224640 | 78 | 344 | 7.0 | 12.0 | 0.00 | 0.08 | 0.08 | 35 | 1017.4 |
| 20260830223613 | 77 | 290 | 5.0 | 11.0 | 0.00 | 0.08 | 0.08 | 35 | 1017.4 |
| 20260830222622 | 78 | 261 | 7.0 | 15.0 | 0.00 | 0.08 | 0.08 | 36 | 1017.5 |
| 20260830221612 | 78 | 279 | 11.0 | 15.0 | 0.00 | 0.08 | 0.08 | 37 | 1017.6 |
| 20260830220622 | 78 | 257 | 9.0 | 15.0 | 0.00 | 0.08 | 0.08 | 37 | 1017.6 |
| 20260830215627 | 77 | 241 | 7.0 | 13.0 | 0.00 | 0.09 | 0.08 | 37 | 1017.5 |
| 20260830214618 | 77 | 261 | 8.0 | 12.0 | 0.00 | 0.09 | 0.08 | 40 | 1017.6 |
| 20260830213627 | 76 | 282 | 5.0 | 11.0 | 0.00 | 0.09 | 0.08 | 42 | 1017.7 |
| 20260830212621 | 77 | 274 | 8.0 | 11.0 | 0.00 | 0.09 | 0.08 | 38 | 1017.9 |
| 20260830211631 | 78 | 265 | 6.0 | 10.0 | 0.00 | 0.09 | 0.08 | 35 | 1018.0 |
| 20260830210643 | 77 | 231 | 6.0 | 10.0 | 0.00 | 0.09 | 0.08 | 41 | 1018.0 |
| 20260830205623 | 77 | 271 | 4.0 | 10.0 | 0.00 | 0.12 | 0.08 | 39 | 1018.0 |
| 20260830204616 | 77 | 226 | 9.0 | 13.0 | 0.00 | 0.12 | 0.08 | 38 | 1018.2 |
| 20260830203626 | 77 | 210 | 9.0 | 13.0 | 0.00 | 0.12 | 0.08 | 36 | 1018.2 |
| 20260830202616 | 77 | 273 | 7.0 | 12.0 | 0.00 | 0.12 | 0.08 | 38 | 1018.3 |
| 20260830201626 | 77 | 193 | 6.0 | 14.0 | 0.00 | 0.12 | 0.08 | 39 | 1018.2 |
| 20260830200620 | 77 | 246 | 6.0 | 12.0 | 0.00 | 0.12 | 0.08 | 40 | 1018.3 |
| 20260830195644 | 76 | 202 | 5.0 | 15.0 | 0.00 | 0.12 | 0.08 | 37 | 1018.4 |
| 20260830194614 | 76 | 190 | 7.0 | 10.0 | 0.00 | 0.12 | 0.08 | 37 | 1018.4 |
| 20260830193624 | 76 | 208 | 4.0 | 13.0 | 0.00 | 0.12 | 0.08 | 44 | 1018.5 |
| 20260830192619 | 75 | 259 | 3.0 | 9.0 | 0.00 | 0.12 | 0.08 | 45 | 1018.5 |
| 20260830191651 | 76 | 244 | 3.0 | 10.0 | 0.00 | 0.12 | 0.08 | 44 | 1018.5 |
| 20260830190620 | 76 | 294 | 5.0 | 11.0 | 0.00 | 0.12 | 0.08 | 43 | 1018.4 |
| 20260830185624 | 75 | 231 | 6.0 | 9.0 | 0.00 | 0.13 | 0.08 | 47 | 1018.5 |
| 20260830184618 | 75 | 257 | 2.0 | 8.0 | 0.00 | 0.13 | 0.08 | 43 | 1018.5 |
| 20260830183629 | 74 | 274 | 7.0 | 12.0 | 0.00 | 0.13 | 0.08 | 46 | 1018.5 |
| 20260830182640 | 74 | 261 | 6.0 | 11.0 | 0.00 | 0.13 | 0.08 | 46 | 1018.4 |
| 20260830181628 | 74 | 259 | 4.0 | 6.0 | 0.00 | 0.13 | 0.08 | 44 | 1018.4 |
| 20260830180623 | 73 | 314 | 3.0 | 7.0 | 0.00 | 0.13 | 0.08 | 52 | 1018.5 |
| 20260830175630 | 73 | 275 | 3.0 | 8.0 | 0.00 | 0.16 | 0.08 | 52 | 1018.5 |
| 20260830174620 | 73 | 286 | 4.0 | 5.0 | 0.00 | 0.16 | 0.08 | 55 | 1018.6 |
| 20260830173630 | 72 | 256 | 1.0 | 4.0 | 0.00 | 0.16 | 0.08 | 61 | 1018.6 |
| 20260830172641 | 71 | 250 | 1.0 | 4.0 | 0.00 | 0.16 | 0.08 | 63 | 1018.6 |
| 20260830171614 | 70 | 246 | 2.0 | 4.0 | 0.00 | 0.16 | 0.08 | 65 | 1018.6 |
| 20260830170624 | 69 | 342 | 1.0 | 4.0 | 0.00 | 0.16 | 0.08 | 65 | 1018.7 |
| 20260830165625 | 69 | 355 | 4.0 | 7.0 | 0.00 | 0.30 | 0.08 | 65 | 1018.7 |
| 20260830164635 | 69 | 355 | 1.0 | 8.0 | 0.00 | 0.30 | 0.08 | 68 | 1018.7 |
| 20260830163625 | 68 | 28 | 3.0 | 11.0 | 0.00 | 0.30 | 0.08 | 68 | 1018.5 |
| 20260830162619 | 67 | 87 | 7.0 | 11.0 | 0.00 | 0.30 | 0.08 | 68 | 1018.5 |
| 20260830161630 | 66 | 109 | 7.0 | 11.0 | 0.00 | 0.30 | 0.08 | 70 | 1018.5 |
| 20260830160628 | 66 | 22 | 2.0 | 5.0 | 0.00 | 0.30 | 0.08 | 76 | 1018.6 |
| 20260830155613 | 65 | 28 | 1.0 | 5.0 | 0.00 | 0.32 | 0.08 | 77 | 1018.6 |
| 20260830154624 | 64 | 28 | 1.0 | 4.0 | 0.00 | 0.32 | 0.08 | 78 | 1018.6 |
| 20260830153614 | 64 | 33 | 3.0 | 10.0 | 0.00 | 0.32 | 0.08 | 79 | 1018.7 |
| 20260830152624 | 63 | 114 | 7.0 | 12.0 | 0.00 | 0.32 | 0.08 | 79 | 1018.7 |
| 20260830151638 | 62 | 99 | 8.0 | 13.0 | 0.00 | 0.32 | 0.08 | 81 | 1018.5 |
| 20260830150628 | 62 | 148 | 5.0 | 9.0 | 0.00 | 0.32 | 0.08 | 82 | 1018.8 |
| 20260830145630 | 61 | 14 | 1.0 | 4.0 | 0.00 | 0.34 | 0.08 | 85 | 1018.9 |
| 20260830144620 | 61 | 5 | 2.0 | 5.0 | 0.00 | 0.34 | 0.08 | 86 | 1019.2 |
| 20260830143614 | 60 | 27 | 4.0 | 9.0 | 0.00 | 0.34 | 0.08 | 88 | 1019.1 |
| 20260830142625 | 59 | 280 | 2.0 | 4.0 | 0.00 | 0.34 | 0.08 | 89 | 1019.1 |
| 20260830141616 | 59 | 340 | 1.0 | 3.0 | 0.00 | 0.34 | 0.08 | 90 | 1018.6 |
| 20260830140628 | 58 | 340 | 3.0 | 6.0 | 0.00 | 0.34 | 0.08 | 89 | 1019.1 |
| 20260830135637 | 58 | 159 | 3.0 | 5.0 | 0.00 | 0.34 | 0.08 | 90 | 1019.1 |